EHI
0 0 0 0 0 0 0 0 0 0 0 0 0 0 0 0 0 0 0 0 0 0 0 0 0 0 0 0 0 0 0 0 0 0 0 0 0 0
0 0 0 0 0 0 0 0 0 0 0 0 0 0 0 0 0 0 0 0 0 0 0 0 0 0 0 0 0 0 0 0 0 0 0 0 0 0
0 0 0 0 0 0 0 0 0 0 0 0 0 0 0 0 0 0 0 0 0 0 0 0 0 0 0 0 0 0 0 0 0 0 0 0 0 0
0 0 0 0 0 0 0 0 0 0 0 0 0 0 0 0 0 0 0 0 0 0 0 0 0 0 0 0 0 0 0 0 0 0 0 0 0 0
0 0 0 0 0 0 0 0 0 0 0 0 0 0 0 0 0 0 0 0 0 0 0 0 0 0 0 0 0 0 0 0 0 0 0 0 0 0
0 0 0 0 0 0 0 0 0 0 0 0 0 0 0 0 0 0 0 0 0 0 0 0 0 0 0 0 0 0 0 0 0 0 0 0 0 0
0 0 0 0 0 0 0 0 0 0 0 0 0 0 0 0 0 0 0 0 0 0 0 0 0 0 0 0 0 0 0 0 0 0 0 0 0 0
0 0 0 0 0 0 0 0 0 0 0 0 0 0 0 0 0 0 0 0 0 0 0 0 0 0 0 0 0 0 0 0 0 0 0 0 0 0
0 0 0 0 0 0 0 0 0 0 0 0 0 0 0 0 0 0 0 0 0 0 0 0 0 0 0 0 0 0 0 0 0 0 0 0 0 0
0 0 0 0 0 0 0 0 0 0 0 0 0 0 0 0 0 0 0 0 0 0 0 0 0 0 0 0 0 0 0 0 0 0 0 0 0 0
0 0 0 0 0 0 0 0 0 0 0 0 0 0 0 0 0 0 0 0 0 0 0 0 0 0 0 0 0 0 0 0 0 0 0 0 0 0
0 0 0 0 0 0 0 0 0 0 0 0 0 0 0 0 0 0 0 0 0 0 0 0 0 0 0 0 0 0 0 0 0 0 0 0 0 0
0 0 0 0 0 0 0 0 0 0 0 0 0 0 0 0 0 0 0 0 0 0 0 0 0 0 0 0 0 0 0 0 0 0 0 0 0 0
0 0 0 0 0 0 0 0 0 0 0 0 0 0 0 0 0 0 0 0 0 0 0 0 0 0 0 0 0 0 0 0 0 0 0 0 0 0
0 0 0 0 0 0 0 0 0 0 0 0 0 0 0 0 0 0 0 0 0 0 0 0 0 0 0 0 0 0 0 0 0 0 0 0 0 0
0 0 0 0 0 0 0 0 0 0 0 0 0 0 0 0 0 0 0 0 0 0 0 0 0 0 0 0 0 0 0 0 0 0 0 0 0 0
0 0 0 0 0 0 0 0 0 0 0 0 0 0 0 0 0 0 0 0 0 0 0 0 0 0 0 0 0 0 0 0 0 0 0 0 0 0
0 0 0 0 0 0 0 0 0 0 0 0 0 0 0 0 0 0 0 0 0 0 0 0 0 0 0 0 0 0 0 0 0 0 0 0 0 0
0 0 0 0 0 0 0 0 0 0 0 0 0 0 0 0 0 0 0 0 0 0 0 0 0 0 0 0 0 0 0 0 0 0 0 0 0 0
0 0 0 0 0 0 0 0 0 0 0 0 0 0 0 0 0 0 0 0 0 0 0 0 0 0 0 0 0 0 0 0 0 0 0 0 0 0
0 0 0 0 0 0 0 0 0 0 0 0 0 0 0 0 0 0 0 0 0 0 0 0 0 0 0 0 0 0 0 0 0 0 0 0 0 0
0 0 0 0 0 0 0 0 0 0 0 0 0 0 0 0 0 0 0 0 0 0 0 0 0 0 0 0 0 0 0 0 0 0 0 0 0 0
0 0 0 0 0 0 0 0 0 0 0 0 0 0 0 0 0 0 0 0 0 0 0 0 0 0 0 0 0 0 0 0 0 0 0 0 0 0
Wind_Speed
6 5 4 4 3 3 2 4 6 5 4 3 1 1 1 3 8 7 8 15 17 16 15 15 15 14 14 13 13 12 11 10 8 7 6 6 5 6
5 6 5 4 3 2 2 1 3 4 4 3 2 1 2 3 7 6 7 17 17 18 17 15 15 15 14 13 13 12 11 10 8 7 5 5 5 5
7 5 5 4 3 2 1 1 2 3 3 1 1 1 2 4 4 4 5 6 9 17 18 17 16 15 14 13 12 12 11 10 8 7 6 5 4 4
9 6 5 3 3 2 1 0 1 2 3 3 1 1 2 2 4 5 4 4 5 14 17 17 16 15 15 14 13 12 11 10 8 7 6 5 4 3
11 8 6 4 2 1 0 0 1 1 2 3 2 1 2 2 4 4 4 3 4 9 14 15 16 16 15 14 13 12 10 9 8 7 6 5 4 3
12 11 10 7 4 1 0 1 1 2 2 2 2 2 2 2 4 4 4 3 4 5 8 10 13 14 14 14 13 11 10 9 8 7 6 5 4 2
11 11 12 15 15 7 3 2 2 1 2 2 2 2 2 2 3 3 4 4 4 3 5 4 5 5 5 10 11 12 11 11 10 9 9 8 6 4
9 10 10 13 16 17 16 14 10 5 2 1 1 2 2 2 2 3 5 5 3 1 4 3 3 4 3 3 10 13 13 12 11 11 10 9 7 6
7 7 7 9 11 9 13 16 16 18 13 4 3 3 3 2 1 3 3 4 4 2 3 3 2 3 3 5 13 13 13 12 11 10 9 8 7 6
6 6 7 7 8 8 8 9 10 10 10 8 7 6 6 5 4 2 5 7 7 5 3 4 2 2 4 4 11 13 12 12 10 9 8 7 6 6
6 6 6 6 12 12 8 7 8 9 14 19 19 18 19 17 10 4 4 5 4 3 4 3 3 3 3 3 6 10 10 10 10 9 7 6 6 6
5 7 10 9 11 12 6 6 7 7 8 9 12 15 14 16 18 10 5 3 4 4 3 3 3 3 3 2 2 3 4 7 9 8 7 7 7 3
4 5 6 11 11 12 10 6 9 8 7 8 8 9 9 9 10 9 8 6 5 4 3 2 3 2 3 2 2 2 2 2 3 4 6 8 9 6
4 3 4 9 11 13 11 13 14 11 6 7 7 8 8 7 7 8 9 9 9 7 5 4 3 3 2 2 2 1 1 2 2 2 2 7 7 9
4 5 4 11 12 11 15 16 12 7 7 7 7 7 6 6 5 5 6 8 9 9 8 7 5 3 2 2 1 1 1 1 2 2 2 3 3 4
4 7 10 13 11 12 12 10 7 7 7 6 5 5 5 5 6 5 4 4 5 5 7 7 6 3 1 1 1 1 1 2 2 3 3 2 3 4
4 4 4 5 6 6 6 6 6 6 6 5 5 5 5 5 5 5 4 4 4 3 3 4 4 2 1 2 1 1 1 1 2 2 3 4 4 4
8 6 6 6 5 5 5 5 5 5 4 4 4 4 4 4 4 4 4 4 4 3 3 3 3 2 1 1 2 1 0 1 2 3 4 5 6 4
8 6 6 5 5 4 4 3 3 3 3 3 3 3 3 3 3 3 3 3 3 3 3 3 3 3 2 2 3 3 3 3 4 4 4 5 7 8
5 5 5 5 5 4 3 3 2 2 2 2 2 2 2 2 2 2 2 2 2 2 2 2 3 3 3 3 3 3 5 5 4 5 5 6 7 10
3 4 4 4 4 4 3 3 2 2 1 1 1 1 0 0 1 1 1 3 2 1 1 2 3 6 4 2 3 3 3 6 8 7 7 7 7 5
2 2 2 3 3 2 2 2 2 2 1 1 1 1 1 1 2 2 2 1 1 2 2 3 3 3 1 2 4 5 5 5 7 12 12 11 7 6
1 1 2 2 2 2 1 2 2 2 2 2 2 2 2 2 3 3 3 3 3 3 3 2 2 2 2 3 4 5 7 8 6 6 7 11 15 20
Wind_Direction
303 301 290 275 262 249 213 172 162 175 209 223 219 184 132 134 150 139 140 141 138 136 132 130 128 125 122 120 120 119 117 113 109 107 104 99 91 78
307 310 306 295 281 268 239 189 151 157 181 198 201 172 137 133 150 138 145 147 147 145 141 139 134 131 128 125 123 122 119 116 114 115 114 111 101 87
307 304 296 297 298 286 265 180 133 133 149 153 113 77 112 139 133 120 131 139 150 148 146 142 137 133 130 127 126 123 120 119 118 118 117 113 104 93
324 310 296 289 287 290 279 148 128 131 141 151 136 110 118 146 130 131 132 137 144 155 149 144 138 134 129 125 123 120 118 117 116 117 120 120 118 113
344 338 329 313 274 280 309 86 102 110 117 139 142 108 100 108 110 101 105 105 128 150 146 142 139 135 131 127 123 119 117 115 115 114 117 119 119 112
354 357 0 357 343 314 67 69 98 115 120 124 130 119 109 97 119 125 113 98 98 110 123 125 129 125 125 124 121 117 115 114 114 114 113 113 113 117
359 2 7 13 15 22 47 60 74 95 114 132 137 126 123 120 143 135 126 111 67 81 100 89 96 93 100 114 112 112 109 104 100 98 93 85 76 70
0 3 9 15 16 22 36 48 53 59 69 98 125 133 117 99 119 138 135 139 133 93 101 81 77 88 86 97 114 109 104 97 90 84 76 67 56 44
3 8 13 13 24 20 29 38 40 44 47 51 61 59 77 49 114 139 137 123 121 141 112 102 78 82 63 94 109 105 100 91 80 69 59 48 35 20
5 7 9 11 33 40 38 39 37 37 47 49 56 57 59 49 47 85 111 101 82 39 39 113 107 86 64 60 92 95 92 81 67 53 40 26 10 1
7 7 8 13 42 52 46 44 39 30 45 54 55 52 52 52 49 63 96 121 107 61 20 94 107 95 75 61 61 72 80 69 51 37 25 11 1 10
10 5 11 31 48 61 55 54 54 43 47 48 49 47 45 42 43 38 36 82 100 95 30 78 95 113 115 77 60 49 54 47 33 29 24 14 4 15
13 5 358 26 46 60 65 66 83 78 64 61 58 52 48 44 38 36 34 44 76 85 51 72 94 84 98 106 83 64 58 33 15 20 20 10 1 357
359 345 354 41 58 69 66 67 74 72 63 61 58 51 47 44 41 41 47 54 62 73 51 49 82 86 97 88 88 52 26 30 23 19 359 353 355 349
349 351 62 75 65 59 65 66 62 59 62 63 60 54 48 42 40 45 52 66 65 60 52 46 60 78 85 108 97 32 350 351 14 359 334 327 316 323
6 31 62 79 73 66 61 56 55 65 68 65 64 56 51 50 44 38 40 50 66 55 46 45 41 56 101 149 184 215 236 289 313 316 304 287 286 288
41 54 64 70 73 70 64 61 58 57 61 58 59 58 53 51 46 38 39 44 60 50 25 14 4 344 234 196 207 223 230 262 277 309 322 311 288 281
47 44 51 56 61 63 67 66 63 63 62 65 57 55 53 51 51 49 54 54 62 54 36 7 356 3 22 165 205 237 267 287 304 317 318 310 303 295
42 37 39 41 44 47 52 60 60 59 57 61 61 51 52 50 51 50 49 51 53 49 34 19 15 20 28 14 10 39 24 343 323 314 308 302 298 301
32 33 30 29 30 31 33 39 49 52 55 61 61 49 37 40 45 43 35 26 32 32 27 20 13 9 1 339 316 303 320 309 311 310 308 303 287 285
24 23 21 20 22 22 20 23 27 29 42 45 41 27 11 12 5 355 342 341 12 13 329 320 318 329 325 302 280 276 281 301 308 302 307 309 306 291
13 7 1 3 8 6 359 2 3 358 357 329 296 281 271 258 259 263 262 264 258 254 264 278 297 308 284 262 274 285 293 299 303 302 291 279 283 290
326 329 328 330 331 325 321 318 309 295 280 267 266 261 252 248 249 250 252 250 253 257 264 280 287 264 257 261 276 283 287 298 303 305 294 286 280 276